Temp
11 11 11 12 12 12 12 13 13 13 14 14 14 14 15 15 16 16 16 16 16 16 16 15 16 15 16 16 18 17 17 17 16 16 15 16 18 19 20 21 20 19 21 20 19 17 17
11 11 12 12 12 12 13 13 13 13 14 14 14 15 15 15 16 16 16 16 16 16 15 15 15 15 15 17 17 17 17 16 16 16 15 16 18 19 19 20 19 20 19 19 19 18 17
11 11 12 12 12 12 13 13 13 13 14 14 15 15 15 16 16 16 16 16 16 16 15 15 15 15 14 17 17 17 16 16 16 16 15 16 16 17 18 19 19 18 18 21 20 19 18
11 11 12 12 12 12 12 13 13 13 14 14 15 15 16 16 16 16 16 16 16 16 15 15 15 14 16 16 16 16 16 16 16 16 15 16 16 16 17 17 18 18 20 20 20 19 17
10 11 12 12 12 12 12 13 13 13 14 14 15 15 16 16 16 16 16 16 15 15 15 15 14 14 17 16 15 15 15 15 15 15 15 15 15 17 16 18 20 20 21 22 22 18 18
10 11 11 11 12 12 12 12 13 13 14 14 15 15 16 16 16 16 16 16 15 15 14 14 13 14 15 16 15 15 15 15 14 14 14 15 16 17 18 19 20 23 22 22 21 19 17
10 11 11 11 11 12 12 12 13 13 13 14 14 15 16 16 17 16 16 16 14 13 13 17 18 18 16 15 15 14 15 14 15 15 17 16 17 18 20 20 21 21 20 21 22 20 17
10 10 11 11 11 11 12 12 12 13 13 14 14 15 15 16 16 15 16 15 14 14 14 16 15 15 15 14 15 14 15 15 16 17 18 16 17 20 21 19 19 19 19 20 21 20 16
7 8 11 11 11 11 11 11 12 12 13 13 14 14 15 15 16 16 15 14 14 13 14 16 13 14 14 14 16 16 14 15 17 17 18 17 20 17 18 18 17 19 19 20 20 19 17
5 6 10 10 10 10 11 11 11 12 12 13 13 14 14 14 14 15 14 14 13 12 17 18 15 14 13 14 16 13 14 15 17 17 18 18 19 17 17 17 19 18 20 20 18 17 18
4 6 8 9 9 10 10 10 11 11 12 12 13 13 13 14 14 13 13 14 13 13 16 17 15 13 13 15 14 13 12 13 16 17 16 18 16 15 16 18 19 18 15 17 17 16 17
4 4 5 7 8 9 9 10 10 11 11 12 12 12 13 13 13 13 13 14 13 16 14 18 15 15 15 15 15 13 13 13 13 15 16 17 14 16 18 16 16 15 15 15 15 16 15
4 4 5 6 7 7 7 8 9 9 10 11 11 12 12 13 12 13 13 13 16 16 18 18 17 15 16 17 16 15 14 14 16 15 16 18 17 16 15 15 14 14 16 16 15 13 16
5 5 5 6 6 6 7 8 8 9 9 10 11 11 12 12 12 12 12 15 15 18 19 16 16 15 16 18 16 16 16 16 17 18 17 17 17 15 14 16 18 14 16 16 16 18 19
5 5 5 5 5 6 6 7 7 8 9 10 11 11 11 11 11 11 12 15 17 18 16 16 17 16 18 16 15 16 16 17 19 18 16 18 19 14 14 15 16 15 14 17 16 17 17
4 4 4 4 5 5 5 6 7 7 8 9 10 10 8 9 10 10 13 14 16 14 14 15 15 17 17 18 16 15 17 18 17 17 18 18 16 18 13 12 13 14 15 14 14 14 15
2 3 3 4 4 5 5 5 6 7 8 9 8 9 8 8 9 11 13 14 14 14 12 14 15 15 16 16 16 16 17 18 16 16 15 16 16 16 12 12 15 12 13 13 14 17 16
1 2 3 4 5 5 5 5 6 6 7 9 6 12 8 9 11 12 12 10 10 12 12 13 13 13 13 14 14 15 15 16 16 15 14 16 15 14 16 18 17 17 16 16 15 14 16
3 1 1 2 3 5 6 6 5 6 6 6 6 7 7 8 9 8 7 8 8 6 6 6 8 6 6 7 7 11 13 9 6 10 10 11 13 12 14 16 16 13 15 15 15 14 12
-2 -2 -1 1 3 4 5 5 5 5 5 5 6 9 8 8 6 6 6 8 7 7 5 3 3 3 3 3 5 5 5 5 4 6 6 7 7 10 11 14 14 9 11 12 11 9 10
-2 -2 -2 -0 0 0 1 3 4 5 5 4 4 4 2 7 8 6 7 7 7 7 6 6 5 4 4 4 5 7 4 6 7 7 4 2 4 5 6 5 7 7 8 7 8 7 7
-2 -3 -3 -3 -3 -3 -3 -2 2 3 4 3 1 1 1 4 4 6 6 6 4 4 4 5 5 4 4 4 5 4 4 5 6 8 7 5 4 6 5 7 9 7 -2 -1 -4 -6 -4
-1 -1 -2 -2 -3 -3 -3 -2 -1 0 1 -2 -3 -2 -1 3 4 4 5 3 2 2 2 3 3 3 3 4 2 2 3 4 5 5 5 5 5 5 5 8 8 8 -5 -5 -7 -8 -7
-3 -3 -2 -2 -2 -2 -3 -2 -1 -1 -2 -3 -4 -3 -0 4 3 3 2 1 1 1 1 1 2 2 3 1 1 4 5 5 5 5 5 4 4 3 4 5 5 -7 -7 -7 -8 -9 -10
-2 -2 -2 -2 -1 -1 -2 -2 -2 -2 -3 -3 -3 -3 -2 1 1 2 1 0 0 1 1 1 1 1 -0 0 2 4 6 7 4 2 4 4 2 2 3 3 -4 -4 -8 -10 -9 -10 -11
-3 -3 -2 -1 -1 -2 -1 -2 -2 -3 -3 -4 -3 -3 -3 -2 2 -1 -1 0 0 0 1 1 0 -0 -0 2 3 2 3 4 4 4 5 5 4 3 3 3 2 -9 -10 -10 -10 -8 -11
-3 -3 -2 -2 -1 -1 -1 -2 -2 -2 -2 -3 -4 -3 -4 -3 -1 -1 -0 -1 -1 -1 -1 -0 -0 -0 1 3 3 3 3 3 2 2 0 1 -2 -0 0 2 -7 -11 -11 -10 -6 -10 -12
-4 -4 -3 -3 -3 -2 -2 -2 -2 -2 -2 -3 -3 -4 -4 -3 -2 -2 -2 -2 -1 -2 -2 -1 -0 -0 2 1 2 2 2 2 1 -4 -4 -6 -7 -3 -3 -2 -3 -12 -10 -10 -12 -13 -13
-3 -4 -3 -4 -3 -2 -2 -2 -1 -2 -2 -2 -3 -3 -3 -4 -3 -3 -2 -1 -2 -2 -3 -2 -1 -2 -0 0 1 1 0 1 1 -2 -7 -6 -11 -9 -9 -9 -12 -13 -13 -14 -14 -14 -14
Height
1526 1523 1520 1517 1514 1511 1508 1505 1502 1499 1496 1493 1491 1488 1486 1485 1484 1483 1483 1482 1482 1482 1482 1482 1483 1483 1482 1483 1480 1476 1476 1477 1478 1480 1481 1483 1484 1484 1481 1477 1478 1478 1473 1474 1474 1475 1475
1526 1524 1521 1518 1515 1512 1509 1506 1503 1500 1497 1494 1491 1488 1486 1484 1482 1481 1481 1481 1482 1482 1481 1481 1482 1481 1482 1481 1475 1474 1475 1476 1477 1478 1480 1482 1482 1482 1481 1478 1478 1474 1474 1471 1471 1472 1472
1526 1524 1522 1519 1516 1513 1510 1507 1504 1501 1498 1495 1491 1488 1486 1482 1481 1480 1480 1480 1480 1480 1480 1480 1480 1480 1479 1477 1473 1473 1474 1475 1476 1477 1480 1480 1481 1483 1480 1477 1476 1475 1474 1465 1463 1467 1470
1527 1524 1522 1519 1517 1513 1510 1507 1505 1502 1499 1496 1492 1489 1486 1483 1481 1480 1479 1478 1478 1478 1478 1478 1478 1479 1476 1471 1471 1472 1472 1473 1475 1476 1477 1477 1479 1481 1481 1478 1476 1473 1469 1464 1457 1463 1468
1527 1525 1522 1520 1517 1514 1511 1509 1506 1503 1499 1496 1493 1489 1486 1484 1482 1480 1478 1477 1476 1475 1475 1476 1477 1478 1473 1468 1468 1470 1471 1473 1473 1475 1476 1477 1479 1479 1479 1476 1469 1464 1461 1451 1451 1461 1462
1528 1525 1523 1520 1517 1515 1512 1509 1507 1503 1500 1497 1494 1490 1487 1484 1481 1479 1477 1476 1474 1473 1473 1474 1474 1479 1468 1467 1465 1466 1469 1471 1473 1474 1476 1477 1478 1474 1471 1468 1466 1451 1448 1448 1451 1455 1461
1528 1526 1523 1521 1518 1516 1513 1510 1507 1504 1500 1497 1494 1490 1487 1484 1480 1479 1478 1476 1477 1475 1472 1467 1466 1463 1463 1463 1464 1465 1467 1470 1472 1473 1471 1473 1472 1464 1457 1457 1454 1452 1456 1452 1444 1448 1455
1529 1526 1524 1521 1518 1515 1512 1510 1507 1503 1500 1496 1493 1490 1487 1483 1480 1479 1478 1478 1477 1477 1468 1461 1460 1462 1461 1462 1463 1464 1466 1469 1468 1465 1465 1471 1464 1454 1452 1455 1455 1455 1456 1450 1442 1445 1456
1529 1526 1523 1521 1518 1516 1512 1509 1506 1503 1499 1496 1493 1489 1486 1483 1480 1479 1478 1477 1475 1473 1470 1456 1455 1456 1459 1461 1459 1459 1463 1463 1462 1461 1459 1458 1446 1452 1452 1453 1457 1452 1452 1445 1444 1445 1450
1530 1526 1523 1521 1518 1515 1512 1509 1505 1501 1498 1495 1492 1489 1485 1483 1483 1479 1478 1476 1474 1473 1465 1450 1453 1454 1456 1457 1457 1457 1458 1462 1459 1455 1454 1451 1445 1449 1452 1451 1447 1449 1439 1441 1446 1453 1448
1530 1527 1524 1521 1518 1514 1510 1507 1503 1500 1496 1493 1490 1487 1485 1482 1481 1480 1479 1476 1474 1474 1475 1449 1452 1453 1453 1456 1456 1455 1455 1458 1454 1451 1455 1444 1446 1451 1450 1443 1441 1442 1447 1447 1448 1449 1444
1531 1527 1524 1520 1516 1512 1508 1504 1501 1498 1494 1491 1488 1485 1482 1481 1478 1478 1476 1475 1475 1473 1476 1447 1450 1451 1453 1452 1452 1454 1455 1457 1456 1453 1449 1443 1448 1447 1441 1442 1445 1447 1449 1451 1451 1450 1449
1531 1528 1523 1519 1515 1510 1506 1502 1498 1494 1490 1487 1485 1482 1479 1478 1478 1476 1475 1475 1474 1469 1446 1446 1447 1450 1448 1444 1447 1449 1450 1450 1446 1453 1444 1433 1435 1439 1443 1444 1448 1449 1446 1448 1448 1455 1434
1531 1527 1523 1518 1514 1509 1504 1500 1496 1491 1486 1483 1480 1478 1475 1474 1473 1473 1474 1474 1474 1448 1443 1448 1448 1448 1447 1440 1441 1443 1441 1440 1435 1435 1437 1432 1434 1433 1432 1429 1424 1441 1436 1436 1433 1423 1409
1529 1525 1521 1517 1513 1508 1503 1498 1494 1490 1484 1477 1474 1473 1471 1470 1471 1472 1474 1468 1453 1446 1451 1451 1446 1445 1437 1441 1445 1441 1436 1430 1423 1427 1436 1424 1417 1425 1428 1428 1428 1431 1438 1426 1427 1414 1416
1528 1525 1521 1517 1512 1508 1504 1498 1493 1488 1482 1475 1469 1469 1471 1470 1470 1471 1469 1460 1453 1455 1455 1452 1450 1440 1439 1432 1440 1439 1428 1422 1427 1427 1427 1419 1424 1412 1427 1433 1432 1429 1426 1430 1430 1430 1420
1529 1525 1521 1517 1513 1508 1504 1499 1493 1488 1482 1474 1469 1470 1472 1471 1471 1471 1464 1457 1457 1459 1460 1455 1447 1442 1437 1437 1434 1431 1426 1423 1427 1427 1429 1425 1423 1412 1427 1426 1418 1429 1426 1425 1420 1405 1406
1530 1526 1522 1517 1513 1508 1504 1499 1494 1488 1482 1475 1473 1471 1474 1472 1473 1468 1466 1472 1470 1463 1462 1459 1454 1448 1444 1440 1436 1431 1429 1428 1428 1428 1427 1422 1418 1411 1403 1401 1403 1404 1403 1407 1409 1404 1397
1531 1527 1523 1518 1513 1509 1505 1500 1496 1491 1485 1480 1481 1480 1477 1474 1473 1476 1479 1477 1475 1474 1473 1470 1466 1468 1465 1460 1456 1438 1431 1438 1440 1436 1437 1432 1418 1416 1399 1396 1398 1408 1399 1400 1397 1396 1400
1532 1528 1524 1519 1514 1510 1505 1502 1498 1493 1489 1486 1486 1481 1481 1480 1485 1486 1484 1476 1476 1474 1475 1476 1475 1474 1474 1468 1463 1454 1452 1447 1449 1448 1445 1439 1432 1420 1407 1392 1394 1417 1408 1405 1408 1412 1401
1533 1530 1525 1520 1515 1511 1508 1503 1499 1494 1490 1489 1490 1496 1496 1485 1483 1488 1486 1482 1478 1474 1476 1475 1470 1473 1474 1469 1459 1451 1455 1451 1447 1445 1446 1448 1440 1436 1428 1426 1422 1418 1413 1411 1407 1408 1408
1535 1532 1528 1523 1519 1514 1510 1505 1499 1496 1492 1492 1498 1500 1497 1493 1491 1487 1482 1481 1484 1485 1484 1475 1474 1475 1472 1467 1461 1457 1457 1453 1445 1439 1439 1442 1439 1431 1426 1417 1411 1410 1450 1441 1452 1461 1454
1538 1534 1530 1526 1522 1517 1512 1507 1503 1499 1496 1499 1503 1503 1502 1494 1491 1489 1485 1490 1490 1489 1485 1481 1480 1476 1471 1466 1467 1463 1458 1451 1446 1444 1444 1444 1436 1430 1414 1404 1404 1403 1467 1466 1475 1480 1473
1538 1535 1531 1527 1524 1521 1516 1513 1509 1505 1504 1506 1506 1505 1503 1492 1494 1494 1494 1494 1491 1490 1488 1483 1481 1477 1470 1467 1461 1452 1444 1438 1439 1437 1439 1440 1440 1437 1422 1412 1408 1482 1480 1480 1483 1488 1488
1539 1536 1532 1529 1525 1522 1520 1517 1513 1509 1507 1508 1507 1508 1507 1500 1498 1494 1495 1494 1490 1487 1484 1481 1478 1476 1473 1467 1458 1443 1432 1426 1439 1444 1441 1441 1443 1438 1425 1424 1465 1469 1484 1490 1485 1490 1493
1539 1536 1534 1531 1527 1524 1520 1518 1515 1512 1508 1508 1509 1510 1509 1506 1496 1499 1497 1493 1489 1485 1481 1479 1477 1472 1471 1464 1454 1450 1440 1437 1436 1439 1438 1438 1438 1436 1429 1427 1423 1492 1489 1487 1487 1480 1495
1540 1538 1535 1532 1528 1524 1521 1517 1514 1512 1511 1509 1508 1508 1508 1506 1499 1499 1496 1494 1492 1491 1486 1479 1476 1471 1468 1458 1451 1448 1444 1445 1443 1445 1451 1447 1456 1449 1445 1433 1480 1499 1488 1483 1470 1492 1494
1541 1538 1534 1531 1527 1524 1521 1517 1513 1511 1510 1509 1507 1506 1507 1503 1497 1496 1495 1493 1491 1490 1487 1482 1476 1472 1467 1461 1457 1453 1452 1451 1454 1474 1475 1481 1483 1466 1463 1453 1456 1497 1487 1489 1505 1501 1498
1540 1537 1534 1530 1527 1523 1519 1514 1511 1510 1508 1507 1505 1505 1504 1503 1497 1491 1488 1488 1488 1488 1488 1486 1482 1481 1476 1470 1465 1464 1460 1457 1456 1464 1489 1485 1505 1497 1499 1497 1507 1505 1505 1506 1504 1502 1497
Wind_Speed
15 16 17 17 18 18 19 20 20 20 20 18 16 12 8 6 5 6 6 6 6 7 6 7 7 7 7 6 8 8 6 5 6 6 8 9 10 10 8 5 7 13 12 9 11 9 10
14 16 17 17 17 17 18 19 19 19 19 19 18 16 12 8 6 6 6 6 8 8 8 8 8 9 5 9 8 7 7 6 7 7 7 10 5 9 10 8 9 6 10 13 10 12 9
13 15 16 16 16 16 17 18 18 19 19 19 19 18 17 11 7 5 6 7 9 10 10 9 8 7 9 11 8 8 7 7 7 7 7 8 8 6 3 7 9 9 10 13 15 15 6
13 13 15 16 16 16 17 18 18 19 19 19 19 19 18 14 6 5 5 8 10 12 12 10 9 6 8 12 10 12 9 6 8 8 9 8 8 7 7 3 5 6 7 7 6 9 5
14 15 15 14 15 16 16 17 18 18 19 19 20 20 18 15 8 9 9 8 10 11 12 10 8 6 8 8 10 11 11 5 7 7 7 5 4 6 4 7 9 9 10 12 7 11 4
14 15 15 15 15 15 16 17 18 18 19 19 19 19 19 16 12 9 9 8 6 8 9 9 9 5 10 5 7 12 13 10 4 7 3 5 6 8 8 10 10 11 13 11 11 8 10
14 14 14 15 16 17 18 18 18 19 19 20 20 19 19 18 13 8 10 6 4 3 7 10 5 5 3 8 7 8 13 10 6 8 7 11 8 14 15 17 19 15 14 17 16 4 6
15 15 15 14 15 16 18 19 20 20 20 21 21 20 19 19 13 8 9 3 5 6 11 17 20 16 7 8 5 9 13 11 9 13 13 5 15 17 15 8 11 14 16 20 17 4 5
14 15 15 15 16 17 18 19 20 20 21 21 21 21 19 18 10 13 10 7 9 9 7 4 7 7 10 14 7 12 17 9 9 14 14 17 8 3 7 12 13 16 17 18 17 3 13
14 17 18 16 16 16 18 19 20 20 21 21 21 21 20 18 6 15 7 11 11 9 5 5 4 3 4 5 6 8 14 7 7 10 15 14 19 12 10 14 13 17 12 15 14 8 10
14 19 19 18 18 18 19 19 20 21 21 21 20 20 18 17 14 9 9 11 9 4 6 4 4 4 5 7 3 5 12 6 11 8 5 6 6 9 14 15 11 5 2 3 8 12 14
18 20 22 23 22 22 21 21 21 22 22 21 20 19 17 16 15 9 11 9 6 4 7 1 3 4 5 11 4 4 6 5 2 7 15 19 1 5 12 1 6 7 3 4 4 6 9
18 21 23 25 25 25 25 24 23 23 22 21 18 18 16 14 8 13 9 4 4 6 2 3 2 3 6 6 7 9 8 10 8 5 10 13 19 7 7 9 5 10 7 5 7 5 8
18 21 24 24 23 23 24 24 25 25 25 24 19 16 15 12 12 8 2 4 9 4 8 4 2 3 6 3 8 8 7 13 19 16 9 9 9 14 13 16 7 15 15 7 10 11 13
18 19 20 21 21 21 23 24 25 24 24 25 19 14 12 9 5 2 6 8 5 4 4 6 7 7 12 6 5 6 12 18 13 18 11 10 17 3 10 3 8 7 10 10 17 21 16
16 16 17 19 19 20 21 23 25 26 27 24 17 8 2 3 2 3 6 9 6 1 4 5 9 10 15 10 7 5 7 1 4 9 15 9 14 9 7 3 6 6 3 5 6 8 17
15 16 17 18 19 20 21 23 25 27 28 25 10 4 5 6 3 5 7 9 6 8 5 5 14 20 20 19 18 19 12 7 4 5 6 8 10 15 5 9 13 8 7 8 6 13 15
16 18 19 21 22 23 23 23 25 27 29 26 9 2 13 8 4 2 6 6 10 9 11 11 7 14 17 19 22 22 23 20 15 10 10 11 8 17 23 19 16 19 18 21 14 17 15
17 20 22 24 25 25 24 24 23 23 24 23 8 5 9 9 2 4 6 5 6 9 9 10 7 10 10 6 7 11 12 14 28 14 11 9 6 12 15 16 15 9 17 16 19 17 20
20 21 22 23 25 26 26 26 24 20 17 12 7 3 6 8 7 7 8 8 6 5 1 4 4 2 5 3 4 5 8 8 25 19 18 9 5 14 15 15 17 3 11 15 16 9 20
22 23 24 25 25 26 27 27 26 22 15 8 8 3 4 5 3 9 9 10 13 10 4 10 2 4 6 7 16 17 3 16 13 14 4 5 5 8 11 16 19 20 22 20 19 15 12
28 29 27 27 27 25 26 29 32 28 15 14 5 6 8 7 8 9 4 5 10 9 7 10 11 13 13 14 15 18 17 14 12 13 13 8 10 13 19 21 19 21 19 10 13 14 8
20 22 25 26 25 27 32 29 30 31 26 11 8 5 4 4 6 5 3 7 10 13 8 8 16 17 16 13 19 26 29 31 25 20 19 17 8 9 14 18 17 12 16 14 13 16 10
20 18 19 18 20 22 27 30 29 24 23 14 9 6 5 3 5 6 10 11 11 13 14 23 19 16 14 26 31 25 26 27 22 18 15 14 15 10 11 17 14 8 10 11 17 14 15
22 23 25 24 20 20 19 21 24 23 12 10 10 7 5 5 11 7 10 13 14 14 13 15 15 16 23 19 8 9 6 3 8 11 8 4 2 5 4 6 8 3 9 6 4 7 14
23 24 25 24 24 21 17 15 18 22 22 13 6 7 4 8 3 7 13 9 9 11 10 14 19 17 7 4 6 3 3 4 3 6 3 10 9 4 5 5 3 4 15 18 8 3 19
21 19 19 21 19 19 18 15 14 16 17 17 6 5 2 7 7 9 10 12 12 10 8 16 16 6 4 4 5 3 3 5 4 6 8 6 5 5 6 3 5 13 20 2 2 7 22
20 19 17 19 19 17 13 14 14 14 14 15 7 5 6 6 19 10 13 17 14 10 4 14 11 1 8 3 3 3 4 5 3 5 5 5 5 4 5 4 2 25 5 6 7 14 16
18 18 22 21 20 18 18 15 12 12 9 12 7 6 9 12 15 23 11 6 12 15 15 6 10 11 5 4 2 3 3 2 5 2 10 2 5 4 5 3 10 6 8 5 7 12 17
Wind_Direction
14 15 17 18 17 19 20 21 23 25 26 26 23 12 352 321 291 275 266 266 260 248 251 253 262 294 316 258 262 253 237 222 212 202 192 200 219 229 251 249 240 242 266 276 264 256 256
10 9 9 12 14 15 17 18 18 19 20 19 18 15 2 333 293 276 273 270 262 256 265 268 272 287 285 259 253 248 241 225 218 212 213 210 226 247 284 261 242 345 286 274 262 247 244
9 7 7 7 12 14 15 16 17 16 16 14 13 10 6 352 335 297 276 269 263 260 263 267 282 292 265 258 249 239 233 224 223 217 220 219 226 223 288 250 257 276 285 272 243 239 250
7 10 8 7 9 13 14 15 16 15 14 12 11 8 6 6 358 1 311 274 261 259 262 266 272 291 264 251 240 228 223 226 221 220 215 226 218 234 239 300 248 258 251 272 69 179 199
6 5 7 10 9 9 12 12 12 12 11 10 9 7 4 360 343 341 329 296 269 261 260 264 271 253 265 260 232 211 210 207 202 215 213 204 174 235 214 238 259 212 268 250 223 191 162
6 4 5 6 7 6 6 7 8 8 7 6 5 5 2 358 349 335 339 323 295 267 257 259 240 261 231 235 209 207 209 197 177 172 176 194 218 237 219 224 244 279 242 260 264 177 218
3 358 3 2 1 1 2 2 1 2 1 360 360 1 359 356 351 345 348 344 338 258 228 219 233 228 167 212 196 190 197 187 175 205 219 198 227 225 233 229 258 296 278 277 277 161 230
359 352 357 357 356 359 359 358 356 356 357 356 354 355 356 355 354 1 356 6 340 303 295 261 245 237 213 194 188 193 188 190 198 221 210 201 239 248 262 278 265 253 264 268 278 163 232
7 353 353 355 353 355 355 355 354 352 352 352 349 349 352 352 351 351 352 351 334 327 266 227 222 240 226 216 231 211 189 213 223 232 215 239 249 48 225 238 241 244 251 264 274 262 241
4 354 353 359 352 348 347 346 347 346 347 346 345 345 345 352 358 340 343 336 334 334 276 171 177 177 180 185 223 198 201 219 215 247 232 254 259 233 226 246 240 262 270 254 268 270 274
352 350 352 354 351 347 344 341 339 337 338 340 339 338 341 346 335 332 323 330 331 345 294 92 150 177 180 205 123 185 194 209 241 216 204 223 206 218 231 242 227 252 18 249 253 261 281
2 357 352 350 347 344 340 336 333 334 331 329 333 331 331 332 330 325 324 326 325 240 247 183 140 181 192 209 205 136 185 209 286 260 240 259 82 248 236 135 236 119 168 208 239 260 257
355 348 348 351 352 348 345 341 336 331 326 323 327 325 319 316 297 309 314 332 260 234 102 160 266 201 240 211 213 202 188 196 211 207 229 240 233 222 200 228 190 205 201 258 229 206 253
338 337 340 340 344 342 342 342 339 335 328 320 314 315 317 299 301 296 248 222 245 280 258 53 323 248 242 212 231 211 239 245 225 245 270 267 260 192 187 223 231 205 211 215 248 245 271
345 345 345 349 353 352 352 351 351 350 341 326 319 313 312 301 290 205 213 225 263 297 350 325 299 266 259 209 263 218 229 255 253 202 228 267 258 120 183 231 209 170 216 259 271 276 276
352 357 1 359 357 360 1 1 359 2 1 347 338 338 319 302 221 190 237 250 275 345 323 280 280 273 277 261 223 224 256 61 253 261 247 277 284 256 135 188 226 243 0 209 216 260 251
10 7 3 359 357 356 357 356 353 356 2 359 20 353 356 2 332 244 249 256 317 334 320 282 277 273 274 272 273 266 264 270 247 249 253 273 254 257 153 202 227 202 235 224 292 251 263
10 2 358 356 354 353 357 355 351 351 358 13 15 10 358 344 271 233 299 8 342 323 324 302 286 283 281 285 278 269 265 259 334 308 274 263 280 272 260 251 237 252 240 235 238 255 250
5 8 8 6 4 3 4 4 1 359 3 5 359 330 351 9 355 19 337 317 330 18 7 360 332 11 9 334 318 299 276 36 19 360 8 351 255 262 271 249 218 240 242 246 262 276 264
18 14 11 9 7 7 7 8 11 8 8 15 358 344 6 41 54 5 342 306 310 345 90 10 297 74 336 307 292 312 332 348 338 342 345 318 250 255 259 277 323 229 261 280 283 265 260
22 17 14 12 13 10 12 13 17 17 20 45 17 47 5 338 351 335 318 294 313 325 327 314 220 163 334 300 309 277 271 308 294 314 14 39 302 330 314 308 305 301 295 301 284 269 259
18 15 17 15 12 13 9 14 14 25 35 54 35 4 342 299 317 320 317 6 319 345 313 313 310 334 315 296 297 304 308 302 281 286 281 199 269 269 277 276 275 272 23 6 27 2 350
19 10 9 5 7 12 15 14 16 18 28 55 35 7 327 319 322 305 11 350 316 318 302 327 325 313 306 325 315 298 284 275 269 281 286 296 289 301 277 297 299 272 27 76 72 38 6
18 6 6 15 6 360 3 11 18 19 29 38 30 7 336 310 319 332 322 325 320 315 294 300 305 295 295 317 311 292 269 263 262 272 267 276 285 266 279 292 255 90 44 63 93 49 27
9 13 10 7 1 1 354 355 4 15 25 24 22 27 353 302 320 312 335 320 313 309 311 307 308 307 310 305 279 302 297 181 100 98 52 174 313 313 304 336 113 204 22 353 352 61 18
17 21 11 4 1 356 349 353 353 359 9 13 6 346 332 316 42 328 323 314 315 322 312 315 317 313 299 274 266 254 287 342 324 348 5 359 1 246 317 273 298 45 324 313 222 176 5
14 13 6 356 349 0 353 347 354 344 352 353 320 347 296 289 292 319 313 318 319 310 304 306 337 325 299 301 298 293 310 343 323 334 346 356 352 10 343 325 103 354 327 334 236 345 343
10 357 350 344 346 349 359 356 345 345 333 344 333 285 306 270 293 286 301 297 299 279 283 314 316 32 297 300 326 357 313 12 303 50 2 33 331 19 317 315 238 5 22 48 328 327 334
4 360 351 352 350 344 349 341 347 333 311 328 343 305 316 290 273 303 318 305 271 270 276 273 288 315 315 299 320 316 275 287 294 85 29 25 356 345 4 40 348 34 77 13 336 331 332